WB5OMR-9 Weather Reports


time (UTC)temp
C
wind
direction
speed
KPH
gust
KPH
rain 1hr
cm
rain 24hr
cm
rain mn
cm
humidity
%
barometer
mb
20260831134858 27 135 0.0 0.0 0.00 0.00 0.00 83 1015.9
20260831133856 26 90 0.0 0.0 0.00 0.00 0.00 84 1015.9
20260831132855 26 135 0.0 0.0 0.00 0.00 0.00 85 1015.9
20260831131855 26 112 0.0 0.0 0.00 0.00 0.00 85 1015.9
20260831130854 25 90 0.0 0.0 0.00 0.00 0.00 85 1015.9
20260831125853 25 112 0.0 0.0 0.00 0.00 0.00 85 1015.6
20260831124852 25 90 0.0 0.0 0.00 0.00 0.00 85 1015.6
20260831123850 25 90 0.0 0.0 0.00 0.00 0.00 85 1015.6
20260831122849 25 112 0.0 0.0 0.00 0.00 0.00 85 1015.2
20260831121847 25 112 0.0 0.0 0.00 0.00 0.00 84 1015.2
20260831120804 25 112 0.0 0.0 0.00 0.00 0.00 84 1015.2
20260831115719 25 112 0.0 0.0 0.00 0.00 0.00 84 1014.9
20260831114636 25 112 0.0 0.0 0.00 0.00 0.00 83 1015.2
20260831113635 25 112 0.0 0.0 0.00 0.00 0.00 83 1015.2
20260831112634 26 90 0.0 0.0 0.00 0.00 0.00 83 1015.2
20260831111633 26 90 0.0 0.0 0.00 0.00 0.00 83 1015.2
20260831110632 26 90 0.0 0.0 0.00 0.00 0.00 83 1015.2
20260831105631 26 112 0.0 0.0 0.00 0.00 0.00 83 1015.2
20260831104630 26 112 0.0 0.0 0.00 0.00 0.00 83 1015.2
20260831103628 26 112 0.0 0.0 0.00 0.00 0.00 82 1015.2
20260831102627 26 112 0.0 0.0 0.00 0.00 0.00 82 1015.2
20260831101543 26 112 0.0 0.0 0.00 0.00 0.00 82 1015.2
20260831100541 26 67 0.0 0.0 0.00 0.00 0.00 82 1015.2
20260831095540 26 67 0.0 0.0 0.00 0.00 0.00 81 1015.2
20260831094539 26 112 0.0 0.0 0.00 0.00 0.00 81 1015.2
20260831093538 26 135 0.0 0.0 0.00 0.00 0.00 81 1015.2
20260831092537 26 135 0.0 0.0 0.00 0.00 0.00 81 1015.2
20260831091536 26 135 0.0 0.0 0.00 0.00 0.00 81 1015.2
20260831090535 26 135 0.0 0.0 0.00 0.00 0.00 80 1015.2
20260831085534 26 112 0.0 0.0 0.00 0.00 0.00 80 1015.2
20260831084533 26 112 0.0 0.0 0.00 0.00 0.00 79 1015.2
20260831083532 26 90 0.0 0.0 0.00 0.00 0.00 79 1015.2
20260831082531 26 90 0.0 0.0 0.00 0.00 0.00 79 1015.6
20260831081530 26 135 0.0 0.0 0.00 0.00 0.00 79 1015.6
20260831080529 26 157 0.0 0.0 0.00 0.00 0.00 79 1015.6
20260831075527 26 112 0.0 0.0 0.00 0.00 0.00 79 1015.6
20260831074527 26 135 0.0 0.0 0.00 0.00 0.00 78 1015.6
20260831073525 26 135 0.0 0.0 0.00 0.00 0.00 77 1015.6
20260831072524 26 135 0.0 0.0 0.00 0.00 0.00 77 1015.6
20260831071440 27 157 0.0 0.0 0.00 0.00 0.00 76 1015.6
20260831070439 27 157 0.0 0.0 0.00 0.00 0.00 76 1015.9
20260831065439 27 157 0.0 0.0 0.00 0.00 0.00 75 1015.6
20260831064438 27 157 0.0 0.0 0.00 0.00 0.00 74 1015.6
20260831063437 27 135 0.0 0.0 0.00 0.00 0.00 74 1015.6
20260831062435 27 135 0.0 0.0 0.00 0.00 0.00 73 1015.6
20260831061434 27 157 0.0 0.0 0.00 0.00 0.00 73 1015.6
20260831060432 27 135 0.0 0.0 0.00 0.00 0.00 72 1015.6
20260831055431 27 180 0.0 0.0 0.00 0.00 0.00 71 1015.6
20260831054430 28 157 0.0 0.0 0.00 0.00 0.00 70 1015.6
20260831053346 28 157 0.0 0.0 0.00 0.00 0.00 69 1015.2
20260831052345 28 157 0.0 0.0 0.00 0.00 0.00 67 1015.2
20260831051343 28 112 0.0 0.0 0.00 0.00 0.00 65 1015.2
20260831050342 28 135 0.0 0.0 0.00 0.00 0.00 65 1015.2
20260831045259 28 135 0.0 0.0 0.00 0.00 0.00 64 1015.2
20260831044258 29 180 0.0 0.0 0.00 0.00 0.00 62 1015.2
20260831043257 29 157 0.0 0.0 0.00 0.00 0.00 60 1014.9
20260831042256 29 157 0.0 0.0 0.00 0.00 0.00 60 1014.9
20260831041255 30 157 0.0 0.0 0.00 0.00 0.00 59 1014.9
20260831040253 30 157 0.0 0.0 0.00 0.00 0.00 58 1014.9
20260831035210 30 135 0.0 0.0 0.00 0.00 0.00 57 1014.6
20260831034126 30 180 0.0 0.0 0.00 0.00 0.00 56 1014.6
20260831033125 31 135 0.0 0.0 0.00 0.00 0.00 55 1014.6
20260831032125 31 180 0.0 0.0 0.00 0.00 0.00 55 1014.6
20260831031124 31 135 0.0 0.0 0.00 0.00 0.00 54 1014.2
20260831030122 31 135 0.0 0.0 0.00 0.00 0.00 53 1013.9
20260831025121 32 157 0.0 0.0 0.00 0.00 0.00 52 1013.5
20260831024120 32 90 0.0 0.0 0.00 0.00 0.00 51 1012.9
20260831023119 32 112 0.0 0.0 0.00 0.00 0.00 50 1013.2
20260831022118 32 112 0.0 0.0 0.00 0.00 0.00 49 1013.5
20260831021035 33 135 0.0 0.0 0.00 0.00 0.00 49 1014.2
20260831015952 33 157 0.0 0.0 0.00 0.00 0.00 48 1013.5
20260831014908 33 112 0.0 0.0 0.00 0.00 0.00 47 1013.2
20260831013907 33 135 0.0 0.0 0.00 0.00 0.00 45 1013.2
20260831012906 33 135 0.0 0.0 0.00 0.00 0.00 43 1013.2
20260831011905 34 112 0.0 0.0 0.00 0.00 0.00 40 1012.9
20260831010904 35 112 0.0 0.0 0.00 0.00 0.00 40 1012.9
20260831005903 35 135 0.0 0.0 0.00 0.00 0.00 39 1012.5
20260831004902 35 112 0.0 0.0 0.00 0.00 0.00 39 1012.9
20260831003819 36 135 0.0 0.0 0.00 0.00 0.00 39 1012.5
20260831002736 36 135 0.0 0.0 0.00 0.00 0.00 38 1012.5
20260831001735 36 157 0.0 0.0 0.00 0.00 0.00 38 1012.2
20260831000652 37 135 0.0 0.0 0.00 0.00 0.00 37 1012.2
20260830235607 37 247 0.0 0.0 0.00 0.00 0.00 37 1012.5
20260830234524 37 247 0.0 0.0 0.00 0.00 0.00 36 1012.5
20260830233440 38 247 0.0 0.0 0.00 0.00 0.00 36 1012.5
20260830232439 38 247 0.0 0.0 0.00 0.00 0.00 35 1012.5
20260830231438 38 90 0.0 0.0 0.00 0.00 0.00 35 1012.5
20260830230436 38 270 0.0 0.0 0.00 0.00 0.00 35 1012.5
20260830225353 38 90 0.0 0.0 0.00 0.00 0.00 36 1012.5
20260830224352 38 67 0.0 0.0 0.00 0.00 0.00 35 1012.5
20260830223351 38 135 0.0 0.0 0.00 0.00 0.00 36 1012.5
20260830222350 38 157 0.0 0.0 0.00 0.00 0.00 36 1012.9
20260830221349 39 90 0.0 0.0 0.00 0.00 0.00 36 1012.9
20260830220347 40 112 0.0 0.0 0.00 0.00 0.00 35 1012.9
20260830215346 40 112 0.0 0.0 0.00 0.00 0.00 35 1012.9
20260830214345 39 135 0.0 0.0 0.00 0.00 0.00 36 1012.9
20260830213343 40 90 0.0 0.0 0.00 0.00 0.00 36 1013.2
20260830212342 40 135 0.0 0.0 0.00 0.00 0.00 36 1013.2
20260830211259 39 180 0.0 0.0 0.00 0.00 0.00 37 1013.2
20260830210216 38 90 0.0 0.0 0.00 0.00 0.00 37 1013.2
20260830205215 39 157 0.0 0.0 0.00 0.00 0.00 37 1013.5
20260830204131 40 0 0.0 0.0 0.00 0.00 0.00 36 1013.9
20260830203130 40 112 0.0 0.0 0.00 0.00 0.00 37 1013.9
20260830202129 38 135 0.0 0.0 0.00 0.00 0.00 38 1013.9
20260830201127 39 135 0.0 0.0 0.00 0.00 0.00 38 1014.6
20260830200044 38 112 0.0 0.0 0.00 0.00 0.00 38 1014.9
20260830195000 39 45 0.0 0.0 0.00 0.00 0.00 38 1014.9
20260830194000 39 112 0.0 0.0 0.00 0.00 0.00 38 1015.2
20260830192959 39 135 0.0 0.0 0.00 0.00 0.00 38 1015.2
20260830191958 40 135 0.0 0.0 0.00 0.00 0.00 38 1015.6
20260830190956 39 157 0.0 0.0 0.00 0.00 0.00 39 1015.9
20260830185955 37 112 0.0 0.0 0.00 0.00 0.00 41 1015.9
20260830184912 38 157 0.0 0.0 0.00 0.00 0.00 40 1015.6
20260830183828 37 180 0.0 0.0 0.00 0.00 0.00 40 1015.6
20260830182827 37 157 0.0 0.0 0.00 0.00 0.00 42 1015.2
20260830181826 38 135 0.0 0.0 0.00 0.00 0.00 41 1015.6
20260830180825 38 157 0.0 0.0 0.00 0.00 0.00 41 1015.9
20260830175824 37 157 0.0 0.0 0.00 0.00 0.00 42 1016.3
20260830174823 37 180 0.0 0.0 0.00 0.00 0.00 43 1016.3
20260830173822 37 247 0.0 0.0 0.00 0.00 0.00 44 1016.6
20260830172821 37 247 0.0 0.0 0.00 0.00 0.00 46 1016.6
20260830171820 37 180 0.0 0.0 0.00 0.00 0.00 47 1016.6
20260830170736 36 180 0.0 0.0 0.00 0.00 0.00 49 1016.6
20260830165653 36 135 0.0 0.0 0.00 0.00 0.00 51 1016.9
20260830164610 35 247 0.0 0.0 0.00 0.00 0.00 52 1016.9
20260830163609 35 180 0.0 0.0 0.00 0.00 0.00 53 1016.9
20260830162608 34 157 0.0 0.0 0.00 0.00 0.00 55 1017.3
20260830161607 33 180 0.0 0.0 0.00 0.00 0.00 58 1016.9
20260830160607 33 202 0.0 0.0 0.00 0.00 0.00 60 1016.9
20260830155605 32 135 0.0 0.0 0.00 0.00 0.00 63 1016.9
20260830154604 32 180 0.0 0.0 0.00 0.00 0.00 64 1016.9
20260830153603 31 135 0.0 0.0 0.00 0.00 0.00 67 1016.9
20260830152602 31 180 0.0 0.0 0.00 0.00 0.00 69 1016.9
20260830151601 30 157 0.0 0.0 0.00 0.00 0.00 71 1016.9
20260830150518 29 157 0.0 0.0 0.00 0.00 0.00 75 1017.3
20260830145435 28 135 0.0 0.0 0.00 0.00 0.00 78 1017.3
20260830144434 27 202 0.0 0.0 0.00 0.00 0.00 79 1017.3
20260830143350 27 135 0.0 0.0 0.00 0.00 0.00 81 1017.3
20260830142349 27 180 0.0 0.0 0.00 0.00 0.00 81 1017.3
20260830141349 27 112 0.0 0.0 0.00 0.00 0.00 83 1016.9
20260830140348 26 157 0.0 0.0 0.00 0.00 0.00 83 1016.9
20260830135346 26 202 0.0 0.0 0.00 0.00 0.00 84 1016.9